Regional Weather Roundup
Issued by NWS

Home | Current Version | Previous Version | Graphics & Text | Print | Product List | Glossary On
Versions: 1 2 3 4 5 6 7 8 9 10 11 12 13 14 15 16 17 18 19 20 21 22 23 24 25 26 27 28 29 30 31 32 33 34 35 36 37 38 39 40 41 42 43 44 45 46 47 48 49 50
000
ASUS44 KMEG 281310
RWRTN
TENNESSEE HOURLY STATE WEATHER ROUNDUP
NATIONAL WEATHER SERVICE MEMPHIS TN
800 AM CDT WED JUN 28 2017

TNZ002-004-019-021-049-052-054-088>092-281400-
WEST TENNESSEE

CITY           SKY/WX    TMP DP  RH WIND       PRES   REMARKS
MEMPHIS INTL   MOSUNNY   75  63  66 S10       30.07R
NWS MEMPHIS      N/A     74 N/A N/A MISG        N/A
JACKSON        SUNNY     71  62  73 SE7       30.09F
SOMERVILLE     SUNNY     73  64  73 VRB5      30.07S
COVINGTON      SUNNY     72  64  78 SE3       30.08S
UNION CITY     SUNNY     70  61  73 S6        30.08R
BOLIVAR        SUNNY     70  63  78 SE6       30.09S
HUNTINGDON     SUNNY     68  63  83 VRB3      30.09S
LEXINGTON      SUNNY     66  61  82 CALM      30.11S
SELMER         SUNNY     70  63  78 SE6       30.11S
SAVANNAH       SUNNY     68  61  77 CALM      30.11S
$$

TNZ008-025-027-028-033-062-065-066-281400-
NORTH MIDDLE TENNESSEE

CITY           SKY/WX    TMP DP  RH WIND       PRES   REMARKS
NASHVILLE      MOSUNNY   68  59  73 CALM      30.16S
PORTLAND       SUNNY     68  59  73 S7        30.15R
CLARKSVILLE    SUNNY     67  59  75 SE5       30.13R
SMYRNA         SUNNY     65  59  81 CALM      30.18R
COOKEVILLE     SUNNY     66  57  72 CALM      30.18R
GALLATIN       SUNNY     64  57  77 CALM      30.19R
CROSSVILLE     SUNNY     64  54  69 CALM      30.22R
$$

TNZ061-075-076-078-094-096-097-281400-
SOUTH MIDDLE TENNESSEE

CITY           SKY/WX    TMP DP  RH WIND       PRES   REMARKS
FAYETTEVILLE   SUNNY     70  59  68 CALM      30.16R
TULLAHOMA      SUNNY     66  55  68 CALM      30.18R
WINCHESTER     SUNNY     70  57  64 E3        30.17R
MCMINNVILLE    SUNNY     64  63  94 CALM      30.18R
COLUMBIA       SUNNY     63  63 100 CALM      30.13S
SHELBYVILLE    SUNNY     66  59  77 CALM      30.16S
$$

TNZ017-018-042-046-047-281400-
NORTHEAST TENNESSEE

CITY           SKY/WX    TMP DP  RH WIND       PRES   REMARKS
TRI CITIES     SUNNY     61  53  75 CALM      30.24R
ELIZABETHTON   SUNNY     63  54  72 CALM      30.24R
$$

TNZ012-013-036-069-073-074-281400-
CENTRAL EAST TENNESSEE

CITY           SKY/WX    TMP DP  RH WIND       PRES   REMARKS
KNOXVILLE      MOSUNNY   63  55  75 NE6       30.18R
OAK RIDGE      SUNNY     66  56  70 VRB3      30.22R
DOWNTOWN KNOXV SUNNY     64  57  77 CALM      30.20R
GATLINBURG     SUNNY     61  54  77 CALM      30.21R
MORRISTOWN     SUNNY     64  54  68 NE7       30.20R
JACKSBORO      SUNNY     63  57  82 CALM      30.25R
$$

TNZ083-085-099-281400-
SOUTHEAST TENNESSEE

CITY           SKY/WX    TMP DP  RH WIND       PRES   REMARKS
CHATTANOOGA    MOSUNNY   67  60  78 N7        30.19R
DAYTON         SUNNY     64  61  88 VRB3      30.19R
$$

SKY/WX REPORTED AS FAIR MEANS FEW OR NO CLOUDS BELOW
12 THOUSAND FEET.





USA.gov is the U.S. government's official web portal to all federal, state and local government web resources and services.